This is the latest recevied weather packets stored in our database for station/object KE0LFX. If no packets are shown the sender has not sent any weather packets the latest 10 day(s).
| Time | Temp. | Humidity | Pressure | Rain* | Wind** | Luminosity | Snow |
|---|---|---|---|---|---|---|---|
| 1778110222 | 11.67° C | 40% | 1020.1 hPa | 0 mm | - | 79 W/m² | - |
| 1778109917 | 12.22° C | 40% | 1020 hPa | 0 mm | - | 53 W/m² | - |
| 1778109613 | 12.22° C | 39% | 1020.1 hPa | 0 mm | - | 162 W/m² | - |
| 1778109311 | 12.22° C | 40% | 1020.2 hPa | 0 mm | - | 197 W/m² | - |
| 1778109009 | 11.11° C | 41% | 1020.2 hPa | 0 mm | - | 189 W/m² | - |
| 1778108704 | 11.67° C | 40% | 1020.2 hPa | 0 mm | - | 56 W/m² | - |
| 1778108402 | 11.67° C | 39% | 1020 hPa | 0 mm | - | 106 W/m² | - |
| 1778108098 | 11.67° C | 39% | 1019.9 hPa | 0 mm | - | 233 W/m² | - |
| 1778107794 | 12.22° C | 39% | 1020 hPa | 0 mm | - | 71 W/m² | - |
| 1778107492 | 12.22° C | 39% | 1019.9 hPa | 0 mm | - | 305 W/m² | - |
| 1778107188 | 12.22° C | 40% | 1020.2 hPa | 0 mm | - | 312 W/m² | - |
| 1778106884 | 12.78° C | 39% | 1020.1 hPa | 0 mm | - | 327 W/m² | - |
| 1778106582 | 12.22° C | 41% | 1020 hPa | 0 mm | - | 136 W/m² | - |
| 1778106278 | 11.67° C | 40% | 1020 hPa | 0 mm | - | 111 W/m² | - |
| 1778105975 | 12.22° C | 39% | 1020.1 hPa | 0 mm | - | 405 W/m² | - |
| 1778105672 | 12.78° C | 40% | 1019.9 hPa | 0 mm | - | 413 W/m² | - |
| 1778105370 | 12.22° C | 41% | 1019.9 hPa | 0 mm | - | 455 W/m² | - |
| 1778105065 | 11.11° C | 42% | 1020.1 hPa | 0 mm | - | 219 W/m² | - |
| 1778104762 | 11.67° C | 42% | 1020.3 hPa | 0 mm | - | 134 W/m² | - |
| 1778104458 | 11.67° C | 41% | 1020.1 hPa | 0 mm | - | 185 W/m² | - |
| 1778104154 | 11.67° C | 41% | 1020.3 hPa | 0 mm | - | 133 W/m² | - |
| 1778103851 | 11.67° C | 41% | 1020.2 hPa | 0 mm | - | 196 W/m² | - |
| 1778103549 | 11.67° C | 41% | 1020.2 hPa | 0 mm | - | 208 W/m² | - |
| 1778103246 | 12.22° C | 41% | 1020.3 hPa | 0 mm | - | 189 W/m² | - |
| 1778102943 | 12.22° C | 41% | 1020.2 hPa | 0 mm | - | 203 W/m² | - |
* Rain latest hour (hover to see other rain measurements)
** Current wind speed in m/s (hover to see current wind gust speed)